OPS 5798 (TRANSIT 5B-4)

Satellite information

Favourite Embed

Satellite Type and Status

PAYLOADIN ORBIT

Key statistics

Satellite OPS 5798 (TRANSIT 5B-4) at a glance.

Uptime

22189

Days in orbit

Revolutions

≈ 13.5

Per day

Orbit

SSO

Sun Synchronous Orbit

Inclination

90.2

Latest

Satellite identification and parameters

Extended collection of information and parameters for OPS 5798 (TRANSIT 5B-4).

Object identification

Identified? True

Debris? False

Object name: OPS 5798 (TRANSIT 5B-4)

International designator: 1964-063B

Object number (NORAD): 897

Object ID (CCSDS): 897

Country: UNITED STATES OF AMERICA (US)

Current information (Y/N): Y

RCS size: MEDIUM

Orbital parameters

Period: 106.376 minutes

Inclination: 90.2293 deg

SMA: 7436.85 km

Apoapsis: 1074.771 km

Periapsis: 1042.659 km

RAAN: 67.4369 deg

Eccentricy: 0.002159

Argument of periapsis: 101.3423 deg

Mean anomaly: 323.8246 deg

Mean motion: 13.53690018 rev/day

Mean motion (dot): 0.00000039 rev/day2

B* drag term: 0.000045151 1/REarth

Two-line elements (TLE)

Creation date: July 6, 2025, 6:05 p.m.

Reference frame: TEME

Reference center: EARTH

Epoch: July 6, 2025, 3:27 p.m. UTC

TLE line 0: 0 OPS 5798 (TRANSIT 5B-4)

TLE line 1: 1 00897U 64063B 25187.64439925 .00000039 00000-0 45151-4 0 9990

TLE line 2: 2 00897 90.2293 67.4369 0021590 101.3423 323.8246 13.53690018998490

Live tracking on map

Real-time ground track for satellite OPS 5798 (TRANSIT 5B-4).

In-orbit conjunctions

There are no conjunctions computed for OPS 5798 (TRANSIT 5B-4), at the moment. Check back to stay up to date, as we update our databases every day.

Go to all conjunctions

Associated space launch

The Transit-O series of satellites that closely followed the design of Transit 5C-1 were also called “Oscars” (Oscar is the phonetic alphabet for “O”, i. e., operational). They were also called NNS (Navy Navigation Satellite) or shortened NavSat.

OPS 5798 (TRANSIT 5B-4) was lifted into orbit during the mission ‘Thor DM-21 Ablestar | Transit-O 1’, on board a Thor DM-21 Ablestar space rocket.

The launch took place on Oct. 6, 1964, 5:04 p.m. from Space Launch Complex 2W.

For more information about the launch, click the button.

Launch to space Thor DM-21 Ablestar | Transit-O 1
Thor DM-21 Ablestar | Transit-O 1

Agency: N/A

Status: Launch Successful

Launch date: Oct. 6, 1964, 5:04 p.m. UTC

Rocket: Thor DM-21 Ablestar

Launch pad: Space Launch Complex 2W

Location: Vandenberg SFB, CA, USA

...

Latest news about this satellite

There are no fresh news available about this satellite. Check back as we update our databases every day.


Newsletter sign-up

Weekly statistics, charts and insights to help you stay on top of the space industry.